Waarnemingen

Advertentie
Mijn weer
Saelices el Chico, Spanje (8195): temperatuur & dauwpunt: 23.01.2020 19:00:00 - 29.01.2020 19:00:00 (CET)Saelices el Chico, Spanje (8195): windsnelheid & windstoten: 23.01.2020 19:00:00 - 29.01.2020 19:00:00 (CET)Saelices el Chico, Spanje (8195): windrichting: 23.01.2020 19:00:00 - 29.01.2020 19:00:00 (CET)Saelices el Chico, Spanje (8195): luchtdruk: 23.01.2020 19:00:00 - 29.01.2020 19:00:00 (CET)Saelices el Chico, Spanje (8195): zicht: 23.01.2020 19:00:00 - 29.01.2020 19:00:00 (CET)Saelices el Chico, Spanje (8195): Zonneschijnduur: 23.01.2020 19:00:00 - 29.01.2020 19:00:00 (CET)Saelices el Chico, Spanje (8195): neerslag: 23.01.2020 19:00:00 - 29.01.2020 19:00:00 (CET)
Datum & Tijd tt [°C] td [°C] ff [km/u] ff [kn] fx [km/u] fx [kn] dd ppp [hPa] vv [km] sd [min] rr [mm]
29.01.2020 19:00:00 10,8 8,0 13 7 25 14 ZZW 1023,8 20 0 -
29.01.2020 18:00:00 11,3 8,1 13 7 27 14 ZZW 1023,2 20 0 0,0
29.01.2020 17:00:00 11,7 8,1 14 8 28 15 ZZW 1023,0 20 0 0,0
29.01.2020 16:00:00 12,3 8,4 15 8 27 15 ZZW 1022,7 20 0 0,0
29.01.2020 15:00:00 12,2 8,5 15 8 27 15 ZZW 1022,7 20 0 0,0
29.01.2020 14:00:00 12,5 8,5 16 9 33 18 ZZW 1023,1 20 0 0,0
29.01.2020 13:00:00 12,0 8,5 16 8 33 18 ZZW 1023,9 20 0 -
29.01.2020 12:00:00 12,3 8,8 12 7 20 11 ZZW 1024,1 20 5 0,0
29.01.2020 11:00:00 10,5 8,4 7 4 14 8 Z 1024,6 20 0 0,2
29.01.2020 10:00:00 9,3 7,3 6 3 13 7 ZZO 1024,8 20 0 0,0
29.01.2020 09:00:00 8,5 6,7 7 4 10 5 ZO 1024,7 20 0 0,0
29.01.2020 08:00:00 8,8 6,7 5 3 9 5 Z 1024,4 20 0 0,0
29.01.2020 07:00:00 8,6 6,5 5 3 8 5 ZZO 1024,0 20 0 -
29.01.2020 06:00:00 8,7 6,7 5 3 11 6 ZZO 1024,0 20 0 0,0
29.01.2020 05:00:00 8,7 6,7 3 2 8 4 OZO 1023,9 20 0 0,0
29.01.2020 04:00:00 9,2 6,7 6 4 18 10 Z 1024,0 20 0 0,0
29.01.2020 03:00:00 9,9 7,1 11 6 19 10 ZW 1024,0 20 0 0,0
29.01.2020 02:00:00 10,0 7,3 8 5 19 10 ZW 1023,9 20 0 0,0
29.01.2020 01:00:00 10,1 7,3 8 5 18 10 ZZW 1024,0 20 0 -
29.01.2020 00:00:00 9,9 7,3 4 2 15 8 Z 1024,1 20 0 0,0
28.01.2020 23:00:00 10,3 7,6 9 5 21 11 WZW 1023,9 20 0 0,0
28.01.2020 22:00:00 10,4 7,8 11 6 21 11 ZZW 1023,9 20 0 0,0
28.01.2020 21:00:00 11,0 8,0 12 6 29 15 ZW 1023,4 20 0 0,0
28.01.2020 20:00:00 11,1 8,0 9 5 23 13 ZW 1023,1 20 0 0,0
28.01.2020 19:00:00 11,2 8,7 14 7 26 14 ZW 1022,6 20 0 -
28.01.2020 18:00:00 11,5 8,9 10 5 31 17 WZW 1022,2 20 0 0,0
28.01.2020 17:00:00 12,5 8,0 14 7 26 14 ZW 1021,5 20 0 0,0
28.01.2020 16:00:00 12,8 8,3 13 7 30 16 ZW 1021,4 20 0 0,0
28.01.2020 15:00:00 12,5 8,4 13 7 30 16 ZW 1021,7 20 0 0,0
28.01.2020 14:00:00 12,5 8,4 14 8 36 19 ZW 1022,1 20 0 0,0
28.01.2020 13:00:00 12,1 8,4 15 8 35 19 ZW 1022,9 20 0 -
28.01.2020 12:00:00 12,2 8,1 15 8 34 18 ZW 1023,0 20 0 0,0
28.01.2020 11:00:00 11,8 8,3 16 8 33 18 ZW 1022,5 20 0 0,0
28.01.2020 10:00:00 10,8 7,8 11 6 24 13 ZW 1022,4 20 0 0,0
28.01.2020 09:00:00 10,2 7,6 9 5 23 12 ZZW 1022,1 20 0 0,0
28.01.2020 08:00:00 10,0 7,7 6 3 13 7 Z 1021,7 20 0 0,0
28.01.2020 07:00:00 9,8 7,6 4 2 13 7 Z 1021,6 20 0 -
28.01.2020 06:00:00 9,7 7,3 5 3 14 8 ZZO 1021,4 20 0 0,0
28.01.2020 05:00:00 9,8 7,4 11 6 26 14 ZW 1021,4 20 0 0,0
28.01.2020 04:00:00 9,9 7,1 15 8 27 15 ZW 1021,5 20 0 0,0
28.01.2020 03:00:00 9,9 7,0 17 9 32 17 ZW 1021,6 20 0 0,0
28.01.2020 02:00:00 9,6 6,7 13 7 31 17 ZW 1021,8 20 0 0,0
28.01.2020 01:00:00 9,7 6,4 12 6 23 13 ZZW 1022,1 20 0 -
28.01.2020 00:00:00 9,6 6,1 10 5 20 11 ZZW 1021,8 20 0 0,0
27.01.2020 23:00:00 10,2 6,4 12 6 36 19 ZW 1022,0 20 0 0,0
27.01.2020 22:00:00 9,8 6,4 15 8 27 15 ZZW 1021,3 20 0 0,0
27.01.2020 21:00:00 9,7 6,4 14 7 25 14 ZZW 1021,6 20 0 0,0
27.01.2020 20:00:00 9,0 6,4 10 6 19 11 ZZW 1021,4 20 0 0,0
27.01.2020 19:00:00 9,5 6,2 12 7 27 15 Z 1021,0 20 0 -
27.01.2020 18:00:00 10,0 6,1 13 7 37 20 ZZW 1021,2 20 0 0,0
27.01.2020 17:00:00 10,1 6,1 22 12 45 24 ZZW 1020,6 20 0 0,0
27.01.2020 16:00:00 10,5 5,9 18 10 48 26 ZZW 1020,7 20 0 0,0
27.01.2020 15:00:00 10,1 5,5 22 12 52 28 ZZW 1021,0 20 0 0,0
27.01.2020 14:00:00 9,8 5,1 26 14 46 25 ZZW 1021,6 20 0 0,0
27.01.2020 13:00:00 - - - - - - - - - - -
27.01.2020 12:00:00 8,8 5,5 19 11 42 23 Z 1022,9 20 0 0,0
27.01.2020 11:00:00 8,4 5,1 21 11 38 21 ZZW 1023,3 20 0 0,0
27.01.2020 10:00:00 7,4 5,1 15 8 23 12 ZZO 1022,9 20 0 0,0
27.01.2020 09:00:00 7,2 5,0 14 7 26 14 ZZO 1023,0 20 0 0,0
27.01.2020 08:00:00 7,0 4,8 12 6 21 12 ZZO 1023,4 20 0 0,0
27.01.2020 07:00:00 6,3 4,3 10 5 15 8 ZO 1023,1 20 0 -
27.01.2020 06:00:00 6,1 4,3 8 4 14 8 ZZO 1023,7 20 0 0,0
27.01.2020 05:00:00 5,5 3,9 10 5 17 9 ZZO 1024,5 20 0 0,0
27.01.2020 04:00:00 4,6 2,9 7 4 14 8 ZO 1025,3 20 0 0,0
27.01.2020 03:00:00 3,8 2,1 6 3 13 7 Z 1025,7 17 0 0,0
27.01.2020 02:00:00 4,2 2,5 8 4 15 8 OZO 1026,1 20 0 0,0
27.01.2020 01:00:00 4,6 2,5 6 3 11 6 ZZO 1026,6 20 0 -
27.01.2020 00:00:00 5,3 2,9 6 3 16 8 ZZW 1026,2 20 0 0,0
26.01.2020 23:00:00 6,1 3,2 8 5 17 9 Z 1025,9 20 0 0,0
26.01.2020 22:00:00 7,5 3,9 10 6 20 11 WZW 1025,6 20 0 0,0
26.01.2020 21:00:00 7,9 3,9 7 4 14 8 Z 1025,3 20 0 0,0
26.01.2020 20:00:00 8,4 3,4 7 4 16 9 Z 1024,8 20 0 0,0
26.01.2020 19:00:00 8,9 2,9 8 4 15 8 ZW 1024,2 20 0 -
26.01.2020 18:00:00 9,6 3,0 5 3 15 8 ZZW 1023,5 20 0 0,0
26.01.2020 17:00:00 10,1 2,9 9 5 17 9 WNW 1023,1 20 0 0,0
26.01.2020 16:00:00 10,4 2,1 7 4 17 9 WNW 1023,0 20 9 0,0
26.01.2020 15:00:00 10,8 3,0 6 3 13 7 ZZO 1022,9 20 28 0,0
26.01.2020 14:00:00 9,7 4,6 8 4 15 8 ZZO 1023,8 20 48 0,0
26.01.2020 13:00:00 8,2 7,0 4 2 14 8 ZZW 1024,9 20 60 -
26.01.2020 12:00:00 5,2 3,9 5 3 12 6 OZO 1026,1 20 49 0,0
26.01.2020 11:00:00 2,4 1,5 6 4 10 5 ZO 1026,9 13 13 0,0
26.01.2020 10:00:00 0,6 -0,3 4 2 8 4 OZO 1026,7 7 27 0,0
26.01.2020 09:00:00 -0,8 -1,7 4 2 7 4 OZO 1026,5 0,3 0 0,0
26.01.2020 08:00:00 -0,1 -1,0 7 4 10 5 OZO 1025,4 0,2 0 0,0
26.01.2020 07:00:00 0,8 -0,3 8 5 13 7 OZO 1024,5 0,2 0 -
26.01.2020 06:00:00 1,8 0,9 8 5 13 7 OZO 1023,8 0,2 0 0,0
26.01.2020 05:00:00 1,9 0,9 6 3 10 6 ZZO 1023,6 0,2 0 0,0
26.01.2020 04:00:00 1,9 0,9 4 2 13 7 ZZO 1023,3 0,2 0 0,0
26.01.2020 03:00:00 2,2 1,3 6 4 10 5 O 1022,7 0,2 0 0,0
26.01.2020 02:00:00 1,5 0,4 8 4 11 6 ZO 1022,6 0,2 0 0,0
26.01.2020 01:00:00 0,2 -1,0 8 4 10 6 OZO 1023,1 0,2 0 -
26.01.2020 00:00:00 2,0 0,6 5 3 7 4 ZW 1022,3 6 0 0,0
25.01.2020 23:00:00 2,5 1,0 5 3 8 4 W - - 0 0,0
25.01.2020 22:00:00 3,5 1,9 4 2 5 3 W 1020,7 13 0 0,0
25.01.2020 21:00:00 4,3 2,3 4 2 6 3 ONO 1020,0 20 0 0,0
25.01.2020 20:00:00 5,6 2,9 3 2 4 2 NNO 1018,9 20 0 0,0
25.01.2020 19:00:00 6,6 3,9 2 1 10 6 ZZW 1018,0 20 0 -
25.01.2020 18:00:00 7,1 4,3 7 4 16 9 NNW 1017,0 20 0 0,2
25.01.2020 17:00:00 7,5 4,3 11 6 19 10 NNW 1016,7 9 0 0,2
25.01.2020 16:00:00 9,1 3,9 5 3 8 4 W 1015,6 20 0 0,0
25.01.2020 15:00:00 9,7 3,9 3 2 9 5 NO 1015,4 20 35 0,0
25.01.2020 14:00:00 8,2 3,9 4 2 7 4 ONO 1016,5 20 0 0,2
25.01.2020 13:00:00 8,0 3,8 3 2 9 5 ONO 1017,1 20 0 -
25.01.2020 12:00:00 7,3 4,5 2 1 8 4 O 1017,6 20 0 0,0
25.01.2020 11:00:00 6,1 4,6 3 1 13 7 NNW 1017,7 13 0 0,4
25.01.2020 10:00:00 5,1 3,6 4 2 9 5 WNW 1017,7 5 0 0,8
25.01.2020 09:00:00 4,6 3,0 4 2 6 4 N 1017,4 10 0 0,2
25.01.2020 08:00:00 4,6 2,9 4 2 6 3 N 1016,7 13 0 0,4
25.01.2020 07:00:00 4,6 2,9 2 1 6 3 O 1016,5 10 0 -
25.01.2020 06:00:00 4,7 2,7 2 1 9 5 ZO 1016,5 20 0 0,0
25.01.2020 05:00:00 4,9 2,5 1 1 5 3 WZW 1016,4 20 0 0,0
25.01.2020 04:00:00 5,5 2,5 3 2 13 7 Z 1016,6 20 0 0,0
25.01.2020 03:00:00 6,6 2,7 10 5 19 11 O 1016,7 20 0 0,0
25.01.2020 02:00:00 6,7 2,9 14 7 20 11 ONO 1017,2 20 0 0,0
25.01.2020 01:00:00 6,3 2,7 4 2 14 8 O 1018,0 20 0 -
25.01.2020 00:00:00 6,5 2,5 8 4 15 8 O 1018,1 20 0 0,0
24.01.2020 23:00:00 5,7 2,9 8 4 13 7 O 1018,8 20 0 0,0
24.01.2020 22:00:00 4,7 2,5 5 3 12 6 OZO 1019,4 20 0 0,0
24.01.2020 21:00:00 5,1 2,1 4 2 10 5 OZO 1019,2 20 0 0,0
24.01.2020 20:00:00 6,2 2,9 4 2 9 5 O 1019,0 20 0 0,0
24.01.2020 19:00:00 7,7 3,4 3 2 6 4 ONO 1018,3 20 0 -
24.01.2020 18:00:00 8,7 3,8 4 2 14 8 ZZO 1018,0 20 8 0,0
24.01.2020 17:00:00 9,2 3,4 7 4 16 8 Z 1017,9 20 3 0,0
24.01.2020 16:00:00 9,4 3,8 9 5 21 11 ZZO 1018,0 20 0 0,0
24.01.2020 15:00:00 9,5 3,6 13 7 22 12 ZZO 1018,4 20 5 0,0
24.01.2020 14:00:00 10,0 3,2 6 3 15 8 Z 1018,7 20 4 0,0
24.01.2020 13:00:00 9,2 4,3 7 4 16 9 Z 1019,8 20 0 -
24.01.2020 12:00:00 9,3 4,3 7 4 18 10 ZO 1020,2 20 56 0,0
24.01.2020 11:00:00 8,2 4,3 4 2 11 6 ZZO 1020,1 20 53 0,0
24.01.2020 10:00:00 5,9 3,8 5 3 8 4 Z 1020,7 20 3 0,0
24.01.2020 09:00:00 5,4 3,2 4 2 9 5 OZO 1020,4 20 0 0,0
24.01.2020 08:00:00 5,4 3,4 6 4 9 5 OZO 1020,0 20 0 0,0
24.01.2020 07:00:00 5,4 3,6 6 4 11 6 OZO 1019,5 20 0 -
24.01.2020 06:00:00 5,3 3,8 6 4 9 5 O 1019,2 20 0 0,0
24.01.2020 05:00:00 5,6 4,1 7 4 9 5 ZO 1019,1 20 0 0,0
24.01.2020 04:00:00 5,8 4,3 4 2 5 3 O 1019,2 20 0 0,0
24.01.2020 03:00:00 5,9 4,5 4 2 8 4 OZO 1019,0 9 0 0,2
24.01.2020 02:00:00 5,9 4,3 6 3 13 7 O 1019,0 20 0 0,0
24.01.2020 01:00:00 6,2 4,3 7 4 13 7 OZO 1019,0 16 0 -
24.01.2020 00:00:00 6,5 4,3 8 4 24 13 OZO 1019,1 20 0 0,0
23.01.2020 23:00:00 6,5 4,3 9 5 20 11 ZO 1018,6 20 0 0,0
23.01.2020 22:00:00 6,4 4,5 9 5 16 9 O 1018,3 8 0 0,2
23.01.2020 21:00:00 6,4 3,9 5 3 17 9 OZO 1017,9 20 0 0,0
23.01.2020 20:00:00 6,7 3,8 8 5 19 10 OZO 1017,4 20 0 0,0
23.01.2020 19:00:00 7,0 3,4 14 8 22 12 O 1017,1 20 0 -

tt = temperatuur
td = dauwpunt
ff = windsnelheid
fx = windstoten
dd = windrichting
ppp = luchtdruk
vv = zicht
sd = Zonneschijnduur
rr = neerslag

Weerstations in de omgeving